Starlink 2088

operational
NORAD ID: 47371 Int'l Des: 2021-005 Owner: SPXS Country: US Constellation: starlink
LEOCIRCULARSTARLINK_TYPE

About Starlink 2088

Description loading...

Live Position

Loading 3D Globe...

Upcoming Passes

Altitude History

Altitude vs Time

uPlot chart will show altitude changes over time

Two-Line Element Set

1 47371U 21005Y 26061.46438059 .00000507 00000-0 52931-4 0 9990
2 47371 53.0555 94.0561 0001315 95.2718 264.8421 15.06393805281956
Epoch: Mar 2, 2026 • Age: 24 hours

Current Status

Altitude 551.2 km
Velocity 7.59 km/s
Sub-Earth Point 45.38°N, 22.3°W
Launch Date Jan 20, 2021
Age 5.1 years
Type internet

Technical Details

Classification Payload
Mass 260.00 kg
Dry Mass 248.00 kg
Total Mass 260.00 kg
Length 0.20 m
Diameter 2.80 m
Span 9.00 m
Shape Box + pan
Manufacturer SPXS
Bus Type Starlink
Phase Status In Orbit
Owner/State SPXS/US

Large Constellations

Loading constellations...